NKS3076 KFLL-KTPA

Flight info

Callsign NKS3076
Flight time 0h 38m
Altitude 24000
Route BNICE2 COREA BLFRG3
Aircraft A321/M-SDE3FGHIRWY/LB1

Departure

Time 2026-05-03 22:22
Airport Fort Lauderdale Hollywood International Airport (KFLL)

Arrival

Time 2026-05-03 23:00
Airport Tampa International Airport (KTPA)
Time Latitude Longitude Altitude Speed Heading
2026-05-03 20:42 26.06888 -80.14297 18 ft 0 kts
2026-05-03 21:12 26.06874 -80.14297 20 ft 4 kts 351°
2026-05-03 21:12 26.06851 -80.14288 21 ft 4 kts 309°
2026-05-03 21:13 26.06844 -80.14271 22 ft 0 kts 270°
2026-05-03 21:16 26.06844 -80.14272 22 ft 1 kts 270°
2026-05-03 21:16 26.06839 -80.14291 20 ft 2 kts 246°
2026-05-03 21:16 26.06835 -80.14300 18 ft 1 kts 245°
2026-05-03 21:16 26.06829 -80.14316 21 ft 1 kts 249°
2026-05-03 21:17 26.06828 -80.14319 20 ft 0 kts 253°
2026-05-03 21:19 26.06825 -80.14331 20 ft 4 kts 252°
2026-05-03 21:20 26.06807 -80.14381 18 ft 9 kts 244°
2026-05-03 21:20 26.06775 -80.14439 17 ft 8 kts 240°
2026-05-03 21:20 26.06760 -80.14500 16 ft 2 kts 268°
2026-05-03 21:20 26.06760 -80.14501 16 ft 0 kts 268°
2026-05-03 21:21 26.06760 -80.14507 16 ft 3 kts 270°
2026-05-03 21:21 26.06761 -80.14551 16 ft 8 kts 271°
2026-05-03 21:21 26.06763 -80.14610 16 ft 7 kts 272°
2026-05-03 21:21 26.06766 -80.14658 16 ft 7 kts 274°
2026-05-03 21:22 26.06767 -80.14717 18 ft 7 kts 270°
2026-05-03 21:22 26.06767 -80.14758 19 ft 7 kts 270°
2026-05-03 21:22 26.06767 -80.14839 21 ft 13 kts 270°
2026-05-03 21:22 26.06768 -80.14956 22 ft 17 kts 271°
2026-05-03 21:23 26.06768 -80.15073 23 ft 11 kts 270°
2026-05-03 21:23 26.06794 -80.15128 23 ft 7 kts 335°
2026-05-03 21:23 26.06833 -80.15132 23 ft 5 kts 358°
2026-05-03 21:23 26.06883 -80.15131 24 ft 10 kts
2026-05-03 21:24 26.06958 -80.15130 24 ft 12 kts
2026-05-03 21:24 26.07035 -80.15129 24 ft 10 kts 360°
2026-05-03 21:24 26.07104 -80.15129 23 ft 11 kts
2026-05-03 21:24 26.07183 -80.15128 21 ft 11 kts
2026-05-03 21:25 26.07258 -80.15128 20 ft 10 kts
2026-05-03 21:25 26.07321 -80.15127 20 ft 8 kts
2026-05-03 21:25 26.07345 -80.15127 20 ft 0 kts
2026-05-03 21:30 26.07347 -80.15127 20 ft 0 kts
2026-05-03 21:30 26.07349 -80.15127 20 ft 0 kts
2026-05-03 21:33 26.07357 -80.15127 20 ft 3 kts
2026-05-03 21:33 26.07391 -80.15127 20 ft 7 kts
2026-05-03 21:34 26.07420 -80.15127 20 ft 0 kts
2026-05-03 21:36 26.07426 -80.15127 20 ft 3 kts
2026-05-03 21:36 26.07466 -80.15127 20 ft 7 kts 353°
2026-05-03 21:36 26.07489 -80.15177 18 ft 10 kts 272°
2026-05-03 21:36 26.07490 -80.15271 17 ft 14 kts 269°
2026-05-03 21:37 26.07491 -80.15396 16 ft 18 kts 271°
2026-05-03 21:37 26.07492 -80.15536 19 ft 18 kts 270°
2026-05-03 21:37 26.07492 -80.15666 20 ft 16 kts 271°
2026-05-03 21:37 26.07493 -80.15778 20 ft 13 kts 270°
2026-05-03 21:38 26.07493 -80.15864 21 ft 9 kts 270°
2026-05-03 21:38 26.07494 -80.15922 22 ft 5 kts 270°
2026-05-03 21:38 26.07494 -80.15961 23 ft 5 kts 271°
2026-05-03 21:38 26.07495 -80.16000 24 ft 5 kts 270°
2026-05-03 21:39 26.07495 -80.16042 25 ft 6 kts 270°
2026-05-03 21:39 26.07495 -80.16078 25 ft 3 kts 270°
2026-05-03 21:39 26.07495 -80.16103 26 ft 4 kts 270°
2026-05-03 21:39 26.07495 -80.16130 26 ft 3 kts 270°
2026-05-03 21:40 26.07495 -80.16155 26 ft 3 kts 270°
2026-05-03 21:40 26.07495 -80.16158 25 ft 0 kts 270°
2026-05-03 21:45 26.07495 -80.16171 25 ft 4 kts 271°
2026-05-03 21:45 26.07496 -80.16207 25 ft 4 kts 270°
2026-05-03 21:45 26.07496 -80.16229 25 ft 0 kts 270°
2026-05-03 21:46 26.07496 -80.16233 25 ft 2 kts 270°
2026-05-03 21:46 26.07496 -80.16252 25 ft 2 kts 270°
2026-05-03 21:47 26.07496 -80.16263 24 ft 1 kts 270°
2026-05-03 21:47 26.07496 -80.16266 24 ft 0 kts 270°
2026-05-03 21:47 26.07496 -80.16280 24 ft 4 kts 270°
2026-05-03 21:47 26.07497 -80.16320 24 ft 5 kts 270°
2026-05-03 21:48 26.07497 -80.16358 24 ft 4 kts 270°
2026-05-03 21:48 26.07497 -80.16390 24 ft 4 kts 270°
2026-05-03 21:48 26.07497 -80.16414 24 ft 0 kts 270°
2026-05-03 21:49 26.07497 -80.16416 24 ft 1 kts 270°
2026-05-03 21:49 26.07497 -80.16426 24 ft 2 kts 270°
2026-05-03 21:50 26.07497 -80.16446 24 ft 3 kts 270°
2026-05-03 21:50 26.07497 -80.16460 24 ft 0 kts 271°
2026-05-03 21:54 26.07497 -80.16464 24 ft 1 kts 271°
2026-05-03 21:54 26.07497 -80.16478 25 ft 2 kts 271°
2026-05-03 21:54 26.07497 -80.16498 25 ft 3 kts 271°
2026-05-03 21:55 26.07498 -80.16525 25 ft 0 kts 270°
2026-05-03 22:05 26.07498 -80.16526 25 ft 1 kts 270°
2026-05-03 22:05 26.07498 -80.16543 25 ft 3 kts 270°
2026-05-03 22:06 26.07498 -80.16577 24 ft 6 kts 272°
2026-05-03 22:06 26.07500 -80.16595 24 ft 0 kts 278°
2026-05-03 22:08 26.07500 -80.16597 24 ft 1 kts 278°
2026-05-03 22:08 26.07502 -80.16609 24 ft 1 kts 285°
2026-05-03 22:09 26.07510 -80.16630 25 ft 4 kts 297°
2026-05-03 22:09 26.07537 -80.16641 23 ft 0 kts 355°
2026-05-03 22:10 26.07554 -80.16642 23 ft 0 kts 358°
2026-05-03 22:14 26.07557 -80.16643 23 ft 0 kts 358°
2026-05-03 22:16 26.07558 -80.16643 23 ft 1 kts 358°
2026-05-03 22:16 26.07575 -80.16643 24 ft 3 kts 359°
2026-05-03 22:17 26.07584 -80.16643 22 ft 0 kts 359°
2026-05-03 22:18 26.07585 -80.16643 22 ft 1 kts 359°
2026-05-03 22:19 26.07602 -80.16643 23 ft 4 kts 359°
2026-05-03 22:19 26.07614 -80.16644 22 ft 6 kts 359°
2026-05-03 22:20 26.07697 -80.16579 22 ft 0 kts 89°
2026-05-03 22:21 26.07697 -80.16573 22 ft 5 kts 91°
2026-05-03 22:22 26.07694 -80.16304 28 ft 73 kts 90°
2026-05-03 22:22 26.07690 -80.15463 18 ft 141 kts 90°
2026-05-03 22:22 26.07686 -80.14230 331 ft 166 kts 90°
2026-05-03 22:22 26.07684 -80.12948 1100 ft 166 kts 85°
2026-05-03 22:23 26.07728 -80.11608 1728 ft 184 kts 85°
2026-05-03 22:23 26.07953 -80.10140 2141 ft 203 kts 69°
2026-05-03 22:23 26.08630 -80.08671 2428 ft 225 kts 54°
2026-05-03 22:23 26.09733 -80.07312 2696 ft 250 kts 38°
2026-05-03 22:24 26.11265 -80.06265 3214 ft 265 kts 20°
2026-05-03 22:24 26.13022 -80.05555 3966 ft 271 kts 17°
2026-05-03 22:24 26.14866 -80.05069 4727 ft 275 kts
2026-05-03 22:24 26.16771 -80.05167 5437 ft 275 kts 345°
2026-05-03 22:25 26.18600 -80.05791 6196 ft 276 kts 336°
2026-05-03 22:25 26.20395 -80.06564 6940 ft 276 kts 328°
2026-05-03 22:25 26.21951 -80.07792 7663 ft 274 kts 311°
2026-05-03 22:25 26.23114 -80.09460 8431 ft 272 kts 296°
2026-05-03 22:26 26.23866 -80.11395 9214 ft 273 kts 289°
2026-05-03 22:26 26.24562 -80.13365 10008 ft 274 kts 289°
2026-05-03 22:26 26.25262 -80.15398 10405 ft 290 kts 285°
2026-05-03 22:26 26.25713 -80.17670 10602 ft 311 kts 277°
2026-05-03 22:27 26.26048 -80.20093 11074 ft 320 kts 277°
2026-05-03 22:27 26.26394 -80.22555 11741 ft 323 kts 277°
2026-05-03 22:27 26.26744 -80.25007 12422 ft 326 kts 277°
2026-05-03 22:27 26.27105 -80.27513 12870 ft 329 kts 277°
2026-05-03 22:28 26.27467 -80.30025 12981 ft 328 kts 277°
2026-05-03 22:28 26.27828 -80.32556 13451 ft 332 kts 277°
2026-05-03 22:28 26.28189 -80.35097 14131 ft 333 kts 277°
2026-05-03 22:28 26.28551 -80.37655 14746 ft 335 kts 277°
2026-05-03 22:29 26.28916 -80.40230 15365 ft 337 kts 277°
2026-05-03 22:29 26.29281 -80.42816 15990 ft 339 kts 276°
2026-05-03 22:29 26.29650 -80.45420 16607 ft 341 kts 276°
2026-05-03 22:29 26.30022 -80.48042 17212 ft 343 kts 276°
2026-05-03 22:30 26.30396 -80.50679 17811 ft 346 kts 276°
2026-05-03 22:30 26.30772 -80.53332 18406 ft 348 kts 276°
2026-05-03 22:30 26.31148 -80.55997 18963 ft 348 kts 276°
2026-05-03 22:30 26.31524 -80.58668 19498 ft 350 kts 275°
2026-05-03 22:31 26.31902 -80.61358 20055 ft 352 kts 275°
2026-05-03 22:31 26.32281 -80.64061 20641 ft 354 kts 275°
2026-05-03 22:31 26.32661 -80.66781 21193 ft 356 kts 275°
2026-05-03 22:31 26.33038 -80.69483 21709 ft 359 kts 275°
2026-05-03 22:32 26.33423 -80.72241 22248 ft 361 kts 275°
2026-05-03 22:32 26.33809 -80.75018 22785 ft 363 kts 274°
2026-05-03 22:32 26.34194 -80.77809 23271 ft 365 kts 274°
2026-05-03 22:32 26.34581 -80.80622 23716 ft 368 kts 274°
2026-05-03 22:33 26.34973 -80.83449 23967 ft 369 kts 274°
2026-05-03 22:33 26.35365 -80.86257 24028 ft 362 kts 274°
2026-05-03 22:33 26.35758 -80.89000 24043 ft 357 kts 276°
2026-05-03 22:33 26.36488 -80.91659 24037 ft 363 kts 288°
2026-05-03 22:34 26.37791 -80.94111 24047 ft 374 kts 301°
2026-05-03 22:34 26.39614 -80.96234 24048 ft 383 kts 309°
2026-05-03 22:34 26.41565 -80.98260 24045 ft 383 kts 309°
2026-05-03 22:34 26.43512 -81.00291 24046 ft 383 kts 309°
2026-05-03 22:35 26.45452 -81.02327 24046 ft 383 kts 309°
2026-05-03 22:35 26.47389 -81.04365 24049 ft 383 kts 309°
2026-05-03 22:35 26.49330 -81.06407 24052 ft 383 kts 309°
2026-05-03 22:35 26.51271 -81.08450 24053 ft 383 kts 309°
2026-05-03 22:36 26.53209 -81.10491 24057 ft 383 kts 308°
2026-05-03 22:36 26.55148 -81.12536 24059 ft 383 kts 308°
2026-05-03 22:36 26.57090 -81.14587 24061 ft 383 kts 308°
2026-05-03 22:36 26.59028 -81.16636 24063 ft 383 kts 308°
2026-05-03 22:37 26.60966 -81.18685 24090 ft 383 kts 308°
2026-05-03 22:37 26.62904 -81.20734 24088 ft 383 kts 308°
2026-05-03 22:37 26.64638 -81.22898 24085 ft 376 kts 301°
2026-05-03 22:37 26.66277 -81.25170 24083 ft 376 kts 301°
2026-05-03 22:38 26.67918 -81.27447 24079 ft 375 kts 301°
2026-05-03 22:38 26.69554 -81.29720 24081 ft 375 kts 301°
2026-05-03 22:38 26.71192 -81.31996 24080 ft 375 kts 301°
2026-05-03 22:38 26.72826 -81.34274 24079 ft 375 kts 301°
2026-05-03 22:39 26.74459 -81.36550 24079 ft 375 kts 301°
2026-05-03 22:39 26.76093 -81.38822 24079 ft 374 kts 301°
2026-05-03 22:39 26.77727 -81.41095 24080 ft 374 kts 301°
2026-05-03 22:39 26.79356 -81.43365 24075 ft 374 kts 301°
2026-05-03 22:40 26.80986 -81.45633 24074 ft 374 kts 301°
2026-05-03 22:40 26.82616 -81.47903 24074 ft 374 kts 301°
2026-05-03 22:40 26.84247 -81.50179 24072 ft 374 kts 301°
2026-05-03 22:40 26.85326 -81.51686 24074 ft 374 kts 301°
2026-05-03 22:41 26.86952 -81.53959 24076 ft 374 kts 301°
2026-05-03 22:41 26.88576 -81.56226 24073 ft 374 kts 301°
2026-05-03 22:41 26.90191 -81.58474 23864 ft 366 kts 301°
2026-05-03 22:41 26.92279 -81.61381 23562 ft 355 kts 301°
2026-05-03 22:42 26.93808 -81.63517 23324 ft 348 kts 301°
2026-05-03 22:42 26.94827 -81.64942 23149 ft 345 kts 300°
2026-05-03 22:42 26.96318 -81.67031 22906 ft 340 kts 301°
2026-05-03 22:42 26.97763 -81.69059 22534 ft 335 kts 301°
2026-05-03 22:43 26.99205 -81.71084 22152 ft 331 kts 301°
2026-05-03 22:43 27.00633 -81.73089 21766 ft 327 kts 301°
2026-05-03 22:43 27.02047 -81.75072 21378 ft 323 kts 301°
2026-05-03 22:43 27.03446 -81.77033 20999 ft 320 kts 301°
2026-05-03 22:44 27.04828 -81.78970 20614 ft 316 kts 301°
2026-05-03 22:44 27.06195 -81.80888 20246 ft 313 kts 301°
2026-05-03 22:44 27.07547 -81.82791 19857 ft 311 kts 302°
2026-05-03 22:44 27.09088 -81.84528 19445 ft 319 kts 313°
2026-05-03 22:45 27.10864 -81.86034 19029 ft 319 kts 315°
2026-05-03 22:45 27.12640 -81.87528 18610 ft 319 kts 315°
2026-05-03 22:45 27.14415 -81.89024 18134 ft 319 kts 315°
2026-05-03 22:45 27.16188 -81.90521 17672 ft 318 kts 315°
2026-05-03 22:46 27.17954 -81.92012 17247 ft 316 kts 315°
2026-05-03 22:46 27.19702 -81.93492 16830 ft 314 kts 315°
2026-05-03 22:46 27.21439 -81.94965 16429 ft 312 kts 315°
2026-05-03 22:46 27.23169 -81.96432 16018 ft 311 kts 316°
2026-05-03 22:47 27.24893 -81.97893 15624 ft 310 kts 316°
2026-05-03 22:47 27.26611 -81.99351 15204 ft 309 kts 316°
2026-05-03 22:47 27.28306 -82.00788 14802 ft 309 kts 316°
2026-05-03 22:47 27.30041 -82.02262 14393 ft 308 kts 317°
2026-05-03 22:48 27.31751 -82.03718 13988 ft 308 kts 317°
2026-05-03 22:48 27.33437 -82.05154 13559 ft 308 kts 317°
2026-05-03 22:48 27.35143 -82.06604 13152 ft 306 kts 317°
2026-05-03 22:48 27.36837 -82.08040 12758 ft 304 kts 317°
2026-05-03 22:49 27.38498 -82.09502 12375 ft 301 kts 316°
2026-05-03 22:49 27.40114 -82.10991 11988 ft 299 kts 315°
2026-05-03 22:49 27.41703 -82.12484 11610 ft 297 kts 315°
2026-05-03 22:49 27.43278 -82.13972 11233 ft 295 kts 315°
2026-05-03 22:50 27.44828 -82.15471 10833 ft 294 kts 313°
2026-05-03 22:50 27.46323 -82.17053 10331 ft 296 kts 311°
2026-05-03 22:50 27.47788 -82.18680 10007 ft 292 kts 310°
2026-05-03 22:50 27.49202 -82.20262 9828 ft 282 kts 310°
2026-05-03 22:51 27.50586 -82.21804 9530 ft 278 kts 311°
2026-05-03 22:51 27.51957 -82.23323 9198 ft 275 kts 311°
2026-05-03 22:51 27.53323 -82.24829 8862 ft 274 kts 311°
2026-05-03 22:51 27.54682 -82.26327 8517 ft 273 kts 311°
2026-05-03 22:52 27.56038 -82.27818 8179 ft 272 kts 312°
2026-05-03 22:52 27.57396 -82.29306 7843 ft 271 kts 313°
2026-05-03 22:52 27.58749 -82.30787 7504 ft 270 kts 313°
2026-05-03 22:52 27.60094 -82.32261 7162 ft 269 kts 313°
2026-05-03 22:53 27.61434 -82.33734 6826 ft 269 kts 313°
2026-05-03 22:53 27.62768 -82.35202 6493 ft 268 kts 314°
2026-05-03 22:53 27.64102 -82.36667 6139 ft 267 kts 314°
2026-05-03 22:53 27.65432 -82.38127 5811 ft 266 kts 314°
2026-05-03 22:54 27.66752 -82.39580 5465 ft 265 kts 315°
2026-05-03 22:54 27.68030 -82.41076 5051 ft 266 kts 308°
2026-05-03 22:54 27.68918 -82.42911 4627 ft 268 kts 291°
2026-05-03 22:54 27.69695 -82.44783 4254 ft 267 kts 305°
2026-05-03 22:55 27.70843 -82.46420 3895 ft 265 kts 314°
2026-05-03 22:55 27.72100 -82.47941 3517 ft 265 kts 315°
2026-05-03 22:55 27.73383 -82.49438 3197 ft 264 kts 316°
2026-05-03 22:55 27.74645 -82.50935 2929 ft 260 kts 315°
2026-05-03 22:56 27.75848 -82.52406 2796 ft 249 kts 315°
2026-05-03 22:56 27.77038 -82.53752 2677 ft 235 kts 326°
2026-05-03 22:56 27.78441 -82.54567 2594 ft 223 kts 347°
2026-05-03 22:56 27.79958 -82.54794 2601 ft 219 kts
2026-05-03 22:57 27.81467 -82.54742 2620 ft 211 kts
2026-05-03 22:57 27.82926 -82.54691 2525 ft 208 kts
2026-05-03 22:57 27.84366 -82.54642 2307 ft 206 kts
2026-05-03 22:57 27.85789 -82.54593 2043 ft 203 kts
2026-05-03 22:58 27.87199 -82.54545 1779 ft 203 kts
2026-05-03 22:58 27.88594 -82.54499 1539 ft 195 kts
2026-05-03 22:58 27.89900 -82.54455 1264 ft 180 kts
2026-05-03 22:58 27.91073 -82.54416 1045 ft 159 kts
2026-05-03 22:59 27.92136 -82.54383 847 ft 150 kts
2026-05-03 22:59 27.93158 -82.54357 639 ft 145 kts
2026-05-03 22:59 27.94169 -82.54324 524 ft 147 kts
2026-05-03 22:59 27.95207 -82.54271 333 ft 146 kts
2026-05-03 23:00 27.96229 -82.54242 122 ft 146 kts
2026-05-03 23:00 27.97206 -82.54209 40 ft 129 kts
2026-05-03 23:00 27.97952 -82.54182 35 ft 83 kts
2026-05-03 23:00 27.98358 -82.54168 44 ft 34 kts
2026-05-03 23:01 27.98474 -82.54165 43 ft 16 kts
2026-05-03 23:01 27.98604 -82.54156 44 ft 19 kts
2026-05-03 23:01 27.98684 -82.54082 45 ft 15 kts 90°
2026-05-03 23:01 27.98682 -82.54036 44 ft 0 kts 94°
2026-05-03 23:02 27.98681 -82.54027 44 ft 3 kts 96°
2026-05-03 23:03 27.98659 -82.53974 43 ft 8 kts 133°
2026-05-03 23:03 27.98602 -82.53941 44 ft 9 kts 142°
2026-05-03 23:03 27.98580 -82.53863 42 ft 12 kts 94°
2026-05-03 23:03 27.98577 -82.53749 39 ft 17 kts 91°
2026-05-03 23:04 27.98574 -82.53603 36 ft 20 kts 91°
2026-05-03 23:04 27.98569 -82.53440 35 ft 21 kts 93°
2026-05-03 23:04 27.98564 -82.53263 33 ft 24 kts 92°
2026-05-03 23:04 27.98559 -82.53066 31 ft 25 kts 90°
2026-05-03 23:05 27.98527 -82.52956 33 ft 13 kts 154°
2026-05-03 23:05 27.98428 -82.52956 33 ft 15 kts 182°
2026-05-03 23:05 27.98313 -82.52958 32 ft 17 kts 181°
2026-05-03 23:05 27.98192 -82.52962 35 ft 17 kts 182°
2026-05-03 23:06 27.98078 -82.52968 38 ft 16 kts 181°
2026-05-03 23:06 27.97960 -82.52971 38 ft 18 kts 182°
2026-05-03 23:06 27.97863 -82.53002 39 ft 13 kts 237°
2026-05-03 23:06 27.97803 -82.53060 41 ft 13 kts 184°
2026-05-03 23:07 27.97711 -82.53063 41 ft 12 kts 181°
2026-05-03 23:07 27.97655 -82.53068 41 ft 8 kts 198°
2026-05-03 23:07 27.97637 -82.53107 41 ft 3 kts 274°
2026-05-03 23:07 27.97644 -82.53140 41 ft 6 kts 282°
2026-05-03 23:08 27.97647 -82.53161 41 ft 0 kts 282°
2026-05-03 23:08 27.97648 -82.53165 41 ft 0 kts 282°
2026-05-03 23:08 27.97650 -82.53172 41 ft 1 kts 283°
2026-05-03 23:08 27.97650 -82.53173 41 ft 0 kts 283°